Location: Unspecified
(43.4680°N, 87.1740°E)
Time: 04:09:07
(UTC+00:00)

FALCON 9 DEB - Pass Details

Date: 17 April 2021
Orbit: 369 x 384 km, 53.0° (Epoch: 16 May)

Event Time Altitude Azimuth Distance (km) Brightness Sun altitude
Exits shadow 21:46:33 - 315° (NW) 1,422 5.6 -16.9°
Reaches altitude 10° 21:46:39 10° 315° (NW) 1,383 5.6 -16.9°
Maximum altitude 21:49:37 43° 29° (NNE) 541 4.0 -16.4°
Drops below altitude 10° 21:52:36 10° 103° (ESE) 1,387 6.3 -16.0°
Sets 21:54:42 0° 111° (ESE) 2,240 7.3 -15.7°
